Regional Weather Roundup
Issued by NWS Upton, NY

Current Version | Previous Version | Text Only | Print | Product List | Glossary Off
Versions: 1 2 3 4 5 6 7 8 9 10 11 12 13 14 15 16 17 18 19 20 21 22 23 24 25 26 27 28 29 30 31 32 33 34 35 36 37 38 39 40 41 42 43 44 45 46 47 48 49 50

000
ASUS41 KOKX 051008
RWROKX

REGIONAL WEATHER ROUNDUP
NATIONAL WEATHER SERVICE NEW YORK NY
600 AM EDT TUE MAY 05 2015

NOTE: "FAIR" INDICATES FEW OR NO CLOUDS BELOW 12,000 FEET WITH NO
SIGNIFICANT WEATHER AND/OR OBSTRUCTIONS TO VISIBILITY.

NYZ071-072-176-178-NJZ106-104-051100-
NEW YORK CITY METRO AREA


CITY           SKY/WX    TMP DP  RH WIND       PRES   REMARKS
CENTRAL PARK   CLEAR     66  47  50 SW5       30.18S
LAGUARDIA APRT PTCLDY    66  47  50 SW6       30.15S
KENNEDY INTL   PTCLDY    56  48  74 S3        30.17S
NEWARK/LIBERTY PTCLDY    63  48  58 SW6       30.16S
BRNX BOT. GARD   N/A     66  46  48 SW3       30.17S
TETERBORO      CLEAR     61  47  59 S3        30.15R
$$

NYZ177-179-078>081-051100-
LONG ISLAND NEW YORK

CITY           SKY/WX    TMP DP  RH WIND       PRES   REMARKS
FARMINGDALE    CLEAR     55  48  77 CALM      30.17S
ISLIP          MOCLDY    56  49  77 SW7       30.15F
SHIRLEY        CLEAR     56  49  77 S6        30.17F
WESTHAMPTON    CLEAR     55  48  77 SW7       30.17F
MONTAUK POINT    N/A     57  47  69 SW7       30.17F
$$

NYZ052-065-067-051100-
HUDSON VALLEY

CITY           SKY/WX    TMP DP  RH WIND       PRES   REMARKS
WHITE PLAINS   PTCLDY    59  48  67 CALM      30.15R
NEWBURGH       MOCLDY    63  50  63 W6        30.16R
MONTGOMERY     PTCLDY    59  49  69 CALM      30.15R
POUGHKEEPSIE   MOCLDY    61  49  64 CALM      30.13R
ALBANY         CLOUDY    63  53  70 W10       30.17R
$$

NJZ001-105-106-008-010-013-015-019>022-104-051100-
NEW JERSEY

CITY           SKY/WX    TMP DP  RH WIND       PRES   REMARKS
NEWARK/LIBERTY PTCLDY    63  48  58 SW6       30.16S
TETERBORO      CLEAR     61  47  59 S3        30.15R
CALDWELL       CLEAR     59  49  69 CALM      30.16R
MORRISTOWN     CLEAR     55  48  76 CALM      30.16S
SOMERVILLE     CLEAR     51  47  86 CALM      30.15R
SUSSEX         PTCLDY    53  47  79 CALM      30.18R
ANDOVER          N/A     56  52  86 CALM      30.17R
TRENTON        CLEAR     61  49  64 SW3       30.17R
MILLVILLE      CLEAR     61  53  75 SW5       30.20R
ATLANTIC CITY  CLEAR     65  52  62 SW9       30.19R
WRIGHTSTOWN    CLEAR     60  51  72 SW5       30.15S
TOMS RIVER     CLEAR     61  48  63 CALM      30.16S
BELMAR         CLEAR     63  46  55 SW8       30.17S
$$

PAZ047>061-062-071-051100-
EASTERN PENNSYLVANIA

CITY           SKY/WX    TMP DP  RH WIND       PRES   REMARKS
PHILADELPHIA   PTCLDY    62  53  72 SW3       30.19R
ALLENTOWN      PTCLDY    56  50  80 W3        30.17S
SCRANTON       CLOUDY    67  54  63 N7        30.19R
$$

CTZ002-004>006-009-010-012-RIZ004-006-007-MAZ004-011-015-051100-
SOUTHERN NEW ENGLAND
 IN CT

CITY           SKY/WX    TMP DP  RH WIND       PRES   REMARKS
BRADLEY INTL   MOCLDY    63  47  55 N3        30.14R
HARTFORD       MOCLDY    63  46  54 SW8       30.14R
DANBURY        PTCLDY    56  46  69 CALM      30.16S
WTRBRY/OXFORD  PTCLDY    61  45  55 CALM      30.17S
BRIDGEPORT     PTCLDY    57  49  74 SW5       30.15R
MERIDEN        MOCLDY    57  47  69 S3        30.15R
NEW HAVEN      MOCLDY    55  47  74 W3        30.15R
CHESTER        FAIR      61  46  59 SW9       30.16R
GROTON         CLEAR     53  45  74 SW3       30.15R
WILLIMANTIC    PTCLDY    61  47  59 CALM      30.14S

 IN RI

CITY           SKY/WX    TMP DP  RH WIND       PRES   REMARKS
PROVIDENCE     MOCLDY    59  45  59 S6        30.14R
BLOCK ISLAND   CLEAR     52  45  76 SW16      30.17S
WESTERLY       CLEAR     57  45  64 SW7       30.16R

 IN MA

CITY           SKY/WX    TMP DP  RH WIND       PRES   REMARKS
BOSTON         CLOUDY    67  44  43 W14       30.11R
WORCESTER      MOCLDY    63  45  51 W10       30.14R
WESTFIELD      CLOUDY    63  49  60 CALM      30.14R
PROVINCETOWN   CLOUDY    52  45  76 SW12      30.13R
NANTUCKET      CLEAR     50  46  86 SW12      30.18S
$$

ANZ330-335-338-340-345-350-353-355-051100-
COASTAL MARINE OBSERVATIONS


STATION/POSITION TIME  SKY/WX   TEMP    WIND        PRES    VSBY  WAVE
                                AIR SEA DIR/SP/G                  HT/PER
                 (UTC)          (F)     (DEG/KT/KT) (MB)    (MI)  (FT/S)
NY HARB ENTRANCE 0950            52 50  200/  8/ 10 1021.2          3/ 5
4S FIRE IS       0903               49                N/A           4/ 5
20S FIRE ISLAND  0950            52 48  210/ 14/ 16 1021.5          4/ 5
GREAT SOUTH BAY  0915            57 59  270/  6/ 12   N/A
23SW MTP         0950            51 46  240/ 14/ 16 1021.7          5/ 6
HUDSON CANYON    NOT AVBL
KINGS POINT      0900            63 50  210/  3/  4 1020.5
EASTERN LI SOUND 0900            53     220/  6/  8   N/A
ROBBINS REEF     0900            64     220/  1/  3 1020.1
$$


>>>>>>>>>>>>>>>>>>>>>>>>>>>> KEY <<<<<<<<<<<<<<<<<<<<<<<<<<<
>                                                          <
>     SKY/WX - SKY CONDITION/PRESENT WEATHER               <
>     TMP    - TEMPERATURE IN FAHRENHEIT                   <
>     DP     - DEWPOINT IN FAHRENHEIT                      <
>     RH     - RELATIVE HUMIDITY IN PERCENT                <
>     WIND   - DIRECTION AND SPEED IN MPH                  <
>     PRES   - MEAN SEA LEVEL PRESSURE IN INCHES OF HG     <
>     WCI    - WIND CHILL INDEX                            <
>     VSB    - VISIBILITY IN MILES                         <
>     HX     - HEAT INDEX                                  <
>     TC     - TEMPERATURE IN CELSIUS                      <
>     VRB    - VARIABLE WIND DIRECTION                     <
>                                                          <
>>>>>>>>>>>>>>>>>>>>>>>>>>>> KEY <<<<<<<<<<<<<<<<<<<<<<<<<<<





USA.gov is the U.S. government's official web portal to all federal, state and local government web resources and services.